Regional Weather Roundup
Issued by NWS

Home | Current Version | Previous Version | Graphics & Text | Print | Product List | Glossary On
Versions: 1 2 3 4 5 6 7 8 9 10 11 12 13 14 15 16 17 18 19 20 21 22 23 24 25 26 27 28 29 30 31 32 33 34 35 36 37 38 39 40 41 42 43 44 45 46 47 48 49 50
000
ASUS43 KLOT 280010
RWRIL

ILLINOIS REGIONAL WEATHER ROUNDUP
NATIONAL WEATHER SERVICE CHICAGO/ROMEOVILLE IL
700 PM CDT WED AUG 27 2014

NOTE: "FAIR" INDICATES FEW OR NO CLOUDS BELOW 12,000 FEET WITH NO
SIGNIFICANT WEATHER AND/OR OBSTRUCTIONS TO VISIBILITY.

* THESE STATIONS ARE NOT UNDER NWS QUALITY CONTROL. THEY ALSO MAY NOT
  REPORT WEATHER SUCH AS PRECIPITATION OR FOG.

ILZ001-002-007-009-015-016-024-280100-
NORTHWEST ILLINOIS

CITY           SKY/WX    TMP DP  RH WIND       PRES   REMARKS
MOLINE         MOCLDY    76  62  62 E8        30.08S
6HR MIN TEMP:  76; 6HR MAX TEMP:  80;

STERLING*      MOCLDY    73  63  68 E6        30.09F
SAVANNA*       PTCLDY    76  59  55 NE3       30.09R
$$

ILZ003-004-008-010-011-017-018-280100-
NORTH CENTRAL ILLINOIS

CITY           SKY/WX    TMP DP  RH WIND       PRES   REMARKS
ROCKFORD       CLOUDY    76  60  57 NE8       30.11F
6HR MIN TEMP:  76; 6HR MAX TEMP:  80;

FREEPORT*      MOCLDY    73  64  74 NE6       30.12F
ROCHELLE*      CLOUDY    74  62  65 NE8       30.09F
DE KALB*       CLOUDY    71  62  72 NE6       30.10F
PERU*          MOCLDY    75  64  69 NE7       30.08F
$$

ILZ005-006-012>014-019>023-280100-
NORTHEAST ILLINOIS

CITY           SKY/WX    TMP DP  RH WIND       PRES   REMARKS
CHICAGO-OHARE  CLOUDY    71  59  65 NE10      30.10F
6HR MIN TEMP:  71; 6HR MAX TEMP:  82;

CHICAGO-MIDWAY MOCLDY    73  62  68 E12       30.11F
6HR MIN TEMP:  73; 6HR MAX TEMP:  81;

AURORA         CLOUDY    74  64  71 E9        30.10F
6HR MIN TEMP:  74; 6HR MAX TEMP:  82;

LANSING*       MOCLDY    70  61  74 NE9       30.11S
JOLIET*        MOCLDY    73  63  71 NE6       30.11S
WAUKEGAN       CLOUDY    68  61  78 NE6       30.11F
6HR MIN TEMP:  68; 6HR MAX TEMP:  74;

DUPAGE AIRPORT CLOUDY    72  63  73 NE8       30.10F
6HR MIN TEMP:  72; 6HR MAX TEMP:  84;

KANKAKEE*      PTCLDY    72  64  75 NE7       30.09S
WHEELING       CLOUDY    71  62  73 NE7       30.12F
6HR MIN TEMP:  71; 6HR MAX TEMP:  79;

MORRIS*        MOCLDY    76  66  72 E7        30.08F
ROMEOVILLE*    MOCLDY    71  62  73 E12       30.10S
NORTHERLY ISL    N/A     70  62  76 N10         N/A
$$

LMZ740>746-280100-
SOUTHERN LAKE MICHIGAN

STATION/POSITION SKY/WX   TEMP    WIND        PRES    VSBY  WAVE
                          AIR SEA DIR/SP/G                  HT/PER
                          (F)     (DEG/KT/KT) (MB)    (MI)  (FT/S)
SOUTHERN BUOY              67 70   20/ 10/ 12 1020.0F         1/ 2
WAUKEGAN HARBOR            69      60/  9/ 10   N/A
HARRISON CRIB              69      50/ 10/ 12   N/A
BURNHAM HARBOR             70      60/  8/ 12   N/A
CALUMET HARBOR             70      30/  6/ 10 1018.4R
MICHIGAN CITY              69      20/ 15/ 16   N/A
MICHIGAN CITY 6N           71 74   40/ 14/ 16   N/A           2/ 3
ST. JOSEPH                 70 73   20/ 14/ 17   N/A           3/ 3
$$

ILZ025>027-034>036-040-047-049-050-058-095>099-280100-
WEST-CENTRAL ILLINOIS

CITY           SKY/WX    TMP DP  RH WIND       PRES   REMARKS
QUINCY         CLOUDY    80  72  76 E5        30.06S HX  84
GALESBURG*     PTCLDY    76  67  73 NE7       30.08S
MACOMB*        MOCLDY    77  70  78 CALM      30.08F
JACKSONVILLE*  PTCLDY    81  75  81 SE3       30.07S HX  86
PITTSFIELD*    PTCLDY    80  73  78 SE3       30.09R HX  84
$$

ILZ028>032-037-038-041>044-048-051>054-059>061-280100-
CENTRAL ILLINOIS

CITY           SKY/WX    TMP DP  RH WIND       PRES   REMARKS
PONTIAC        MOCLDY    79  70  73 CALM      30.07F HX  81
DECATUR        CLOUDY    80  74  81 NE3       30.06S HX  85
PEORIA         PTCLDY    79  67  66 NE6       30.07S HX  81
6HR MIN TEMP:  79; 6HR MAX TEMP:  85;

LACON*         PTCLDY    76  67  73 CALM      30.05F
LINCOLN*       PTCLDY    80  71  72 NE3       30.02S HX  84
SPRINGFIELD    PTCLDY    80  73  79 N5        30.06R HX  84
6HR MIN TEMP:  76; 6HR MAX TEMP:  86; 6HR PCP:  0.02;

TAYLORVILLE    PTCLDY    77  70  78 CALM      30.06R
$$

ILZ033-039-045-046-055>057-062-063-280100-
EAST-CENTRAL ILLINOIS

CITY           SKY/WX    TMP DP  RH WIND       PRES   REMARKS
CHAMPAIGN      MOCLDY    80  70  71 NE12      30.06F HX  83
DANVILLE*      MOCLDY    75  70  82 NE7       30.05S
RANTOUL*       MOCLDY    80  66  63 CALM      30.08S HX  82
MATTOON        LGT RAIN  76  74  93 CALM      30.05R
PARIS*         CLOUDY    77  74  90 CALM      30.06S
$$

ILZ079-100>102-280100-
SOUTHWEST ILLINOIS

CITY           SKY/WX    TMP DP  RH WIND       PRES   REMARKS
ALTON          MOCLDY    72  66  83 E7        30.06F
BELLEVILLE     TSTM      75  71  86 NE10      30.06R
CAHOKIA*       CLOUDY    79  70  73 S7        30.11  HX  81
SPARTA*        CLOUDY    85  77  77 CALM      30.04R HX  94
$$

ILZ064>066-069>071-074>076-080>082-084>086-088>090-092>094-280100-
SOUTH-CENTRAL ILLINOIS

CITY           SKY/WX    TMP DP  RH WIND       PRES   REMARKS
CARBONDALE     MOCLDY    85  76  74 N5        30.02S HX  94
6HR MIN TEMP:  85; 6HR MAX TEMP:  94;

CAIRO*         CLEAR     87  77  72 CALM      30.01R HX  98
EFFINGHAM*     RAIN      78  66  67 CALM      30.05F HX  80
MARION         PTCLDY    86  75  70 CALM      30.03R HX  95
MT. VERNON     MOCLDY    77  70  78 NE5       30.04R
CENTRALIA*       N/A     81  70  70 CALM      30.05  HX  84
SALEM*         MOCLDY    85  74  69 CALM      30.05R HX  91
METROPOLIS*    CLEAR     84  76  77 CALM      30.01R HX  92
$$

ILZ067-068-072-073-078-083-087-091-280100-
SOUTHEAST ILLINOIS

CITY           SKY/WX    TMP DP  RH WIND       PRES   REMARKS
LAWRENCEVILLE  MOCLDY    82  71  69 N7        30.03R HX  86
FLORA*         MOCLDY    77  70  79 SW5       30.05R
FAIRFIELD*     MOCLDY    81  73  78 W5        30.04R HX  85
HARRISBURG*    CLEAR     85  75  71 CALM      30.04R HX  94
ROBINSON*      MOCLDY    81  75  81 CALM      30.04S HX  87
CARMI*           N/A     83  73  70 N10G22    30.03R HX  89
$$

ABBREVIATIONS USED IN REMARKS
   TC - TEMPERATURE IN CELSIUS
  WCI - WIND CHILL INDEX
   HX - HEAT INDEX
  VSB - VISIBILITY
$$




USA.gov is the U.S. government's official web portal to all federal, state and local government web resources and services.